This is the latest recevied weather packets stored in our database for station/object F1AGU-13. If no packets are shown the sender has not sent any weather packets the latest 10 day(s).
| Time | Temp. | Humidity | Pressure | Rain* | Wind** | Luminosity | Snow |
|---|---|---|---|---|---|---|---|
| 1777911916 | 9.44° C | 91% | 1014.8 hPa | 0.51 mm | - | - | - |
| 1777911316 | 10° C | 90% | 1015.1 hPa | 0.51 mm | - | - | - |
| 1777910716 | 10° C | 91% | 1015.1 hPa | 0.76 mm | - | - | - |
| 1777910116 | 10° C | 91% | 1015.1 hPa | 0.51 mm | - | - | - |
| 1777909516 | 9.44° C | 91% | 1014.9 hPa | 0.76 mm | - | - | - |
| 1777908916 | 9.44° C | 94% | 1015.2 hPa | 0.76 mm | - | - | - |
| 1777908316 | 9.44° C | 95% | 1015.4 hPa | 1.02 mm | - | - | - |
| 1777907716 | 9.44° C | 95% | 1015.3 hPa | 1.52 mm | - | - | - |
| 1777907116 | 9.44° C | 96% | 1015.4 hPa | 1.78 mm | - | - | - |
| 1777906516 | 9.44° C | 97% | 1015.4 hPa | 2.29 mm | - | - | - |
| 1777905916 | 9.44° C | 97% | 1015.6 hPa | 2.29 mm | - | - | - |
| 1777905316 | 8.89° C | 96% | 1015.4 hPa | 2.29 mm | - | - | - |
| 1777904716 | 8.89° C | 97% | 1015.6 hPa | 3.56 mm | - | - | - |
| 1777904116 | 8.89° C | 97% | 1015.6 hPa | 3.56 mm | - | - | - |
| 1777903516 | 8.89° C | 97% | 1016 hPa | 4.32 mm | - | - | - |
| 1777902916 | 8.89° C | 96% | 1016 hPa | 4.83 mm | - | - | - |
| 1777902316 | 8.89° C | 96% | 1016 hPa | 5.08 mm | - | - | - |
| 1777901716 | 8.89° C | 97% | 1015.9 hPa | 6.1 mm | - | - | - |
| 1777901116 | 8.89° C | 96% | 1015.9 hPa | 5.59 mm | - | - | - |
| 1777900516 | 8.89° C | 96% | 1015.8 hPa | 6.1 mm | - | - | - |
| 1777899916 | 8.89° C | 96% | 1016 hPa | 6.1 mm | - | - | - |
| 1777899316 | 8.89° C | 96% | 1015.9 hPa | 6.35 mm | - | - | - |
| 1777898716 | 8.89° C | 96% | 1015.7 hPa | 7.11 mm | - | - | - |
| 1777898116 | 8.89° C | 96% | 1016.1 hPa | 6.86 mm | - | - | - |
| 1777897516 | 8.89° C | 95% | 1016.1 hPa | 6.86 mm | - | - | - |
* Rain latest hour (hover to see other rain measurements)
** Current wind speed in m/s (hover to see current wind gust speed)